Погода Кайластуй

Погода Кайластуй : погода сейчас, прогноз погоды и архив. Всё, что Вы хотите узнать о погоде Кайластуй!

Хотите узнать прогноз погоды Кайластуй? Тогда Вам сюда: Погода Кайластуй

Поиск расширенной информации на нашем сайте:

Другие новости

Новости СМИ2

Главная страница сайта

Новости сайта

03.07.2017

Напоминаем, что на нашем специализированном сайте Метеоцентр.Азия вы можете получить высокодетализированные автоматические прогнозы погоды по пунктам России, СНГ и мира в авиационном формате (включающие направление и скорость ветра, видимость, явления погоды, количество и форму облачности, нижнюю и верхнюю границу облачности).

Рекомендуем: Подробная информация игровая детская площадка тут.

Погода Кайластуй - сегодня

Время (UTC), дата Ветер
(°,м/с) 
Видим.   Явления Облачность Т
(°С)
Тd
(°С)
f(%) Тe
(°С)
Pmin
(гПа)
dP
(гПа)
Po
(мм)
O2
(г/м3)
Тmin Tmax R s Состояние
почвы
18 19.02.18 080 (В) 20000 м    ясно 
-26.3 -29.7 73 -27  1029  -0.7  716  321           
21 19.02.18 тихо ()   20000 м    ясно 
-28.6 -31.8 74 -29  1028.9  -0.7  715  324           
03 20.02.18 330 (СЗ) 20000 м    ясно 
-17.1 -22.9 61 -17  1026.5  0.3  716  309           
06 20.02.18 300 (СЗ) 20000 м    ясно 
-11.3 -20.1 48 -16  1023.4  -1.4  715  302           
09 20.02.18 280 (З) 5{11}  20000 м    ясно 
-13.3 -22.5 46 -19  1023.6  -0.3  715  304           
15 20.02.18 070 (В) 2{11}  20000 м    ясно 
-17.3 -22.4 64 -20  1023.7  -0.9  714  309           
18 20.02.18 200 (Ю) 20000 м    ясно 
-21.8 -24.8 77 -25  1023  -1.9  713  314           
21 20.02.18 210 (ЮЗ) 20000 м    ясно 
-19.1 -22.6 74 -22  1019.7  -2.3  711  310           
03 21.02.18 330 (СЗ) 4{10}  20000 м    3/0 верхняя 
[Ci fib]
-10.9 -17.9 56 -15  1015.3  -0.3  709  299           
15 21.02.18 тихо ()   20000 м    ясно 
-25.4 -28.4 76 -25  1020.6  0.1  710  317           
18 21.02.18 360 (С) 20000 м    ясно 
-27.2 -30.1 76 -28  1021  0.1  710  320           
21 21.02.18 060 (СВ) 20000 м    ясно 
-30.1 -33.7 71 -31  1021.6  -0.3  710  323           
03 22.02.18 240 (ЮЗ) 20000 м    ясно 
-18.9 -21.6 79 -19  1019  0.2  710  309           
06 22.02.18 160 (Ю) 20000 м    ясно 
-12.7 -21 50 -15  1016.8  -0.8  710  301           
09 22.02.18 160 (Ю) 20000 м    3/0 верхняя 
[Ci sp]
-17.2 -22.3 64 -17  1018.5  0.7  710  307           
12 22.02.18 тихо ()   20000 м    ясно 
-24.3 -27.2 77 -24  1021.8  1.1  711  316           
15 22.02.18 030 (СВ) 20000 м    ясно 
-27 -30.3 73 -30  1023.5  0.8  712  320           
18 22.02.18 тихо ()   20000 м    ясно 
-28.9 -32.2 73 -29  1025.5  1.3  713  323           
21 22.02.18 180 (Ю) 20000 м    ясно 
-33.1 -37 68 -34  1028.8  1.7  714  329           
03 23.02.18 060 (СВ) 20000 м    ясно 
-23.1 -26.1 76 -24  1030.2  1.9  717  317           
06 23.02.18 140 (ЮВ) 20000 м    ясно 
-16.6 -23.7 54 -19  1028.9  0.6  718  310           
09 23.02.18 180 (Ю) 20000 м    ясно 
-19.4 -24.8 62 -22  1031.5  1.6  719  314           
12 23.02.18 150 (ЮВ) 20000 м    ясно 
-24 -27.6 72 -24  1034.4  1.4  720  320    -16.2       
15 23.02.18 060 (СВ) 20000 м    ясно 
-26.8 -30.2 73 -30  1036.3  0.9  721  324           
18 23.02.18 080 (В) 20000 м    ясно 
-31.2 -34.9 70 -35  1038.2  0.5  721  330           
Время (UTC), дата Ветер
(°,м/с) 
Видим.   Явления Облачность Т
(°С)
Тd
(°С)
f(%) Тe
(°С)
Pmin
(гПа)
dP
(гПа)
Po
(мм)
O2
(г/м3)
Тmin Tmax R s Состояние
почвы

Для получения пояснительной информации подведите курсор к названию столбца.

ПОГОДА Кайластуй - архив

Всё, что Вы хотите узнать о погоде Кайластуй - удобно и подробно!

Выберите нужную дату (начиная с 1 января 2015* года) и нажмите кнопку "Найти".
Будут отображены архивные сводки погоды по пункту Кайластуй, начиная с указанной даты.


Отображать данные в формате CSV (для использования в таблицах Excel)


Внимание! Наш архив погоды предназначен исключительно для личного некоммерческого использования в познавательных целях. Если Вам необходимы официальные справки о состоянии погоды (для производственных, юридических, коммерческих и т.п. целей), обращайтесь в органы Росгидромета.

*Примечание: данная дата относится к архиву по метеостанциям СССР (Россия, СНГ, Балтия).
Архив по метеостанциям Зарубежной Европы и Азии (кроме Китая) хранится 10 дней, по другим регионам земного шара (Китай, Африка, Америка, Австралия, Океания) - 1 день.

Кайластуй - район местоположения метеостанции


Название, широта, долгота, высота метеостанции:
Кайластуй 49.8°ш. 118.4°д. 550 м над ур. моря [Российская Федерация]

Дополнительная информация

В oтличие oт бoльшинства пoгoдных сайтoв мы публикуем пoдрoбную метеoинфoрмацию в детальнoм прoфессиoнальнoм фoрмате.

Характеристики температуры и влажнoсти вoздуха измеряются на высoте 2 м в тени вдали oт зданий и деревьев.
Скoрoсть ветра измеряется на высoте 10 м (на урoвне рoста челoвека скoрoсть ветра ниже в 1.5-2 раза). Если метеoстанция нахoдится в гoрoде или в лесу, тo скoрoсть ветра занижена на 2-4 м/с пo сравнению с oткрытым местoм. Скoрoсть ветра над акватoриями крупных рек и oзёр, а также на вершинах хoлмoв на 2-5 м/с выше, чем в oбычных услoвиях.
Атмoсфернoе давление в разных тoчках местнoсти мoжет значительнo oтличаться oт давления на метеoстанции, в зависимoсти oт услoвий рельефа (при пoдъёме на 10 м давление пoнижается примернo на 1 мм рт.ст.).